TimeEST,TemperatureF,Dew PointF,Humidity,Sea Level PressureIn,VisibilityMPH,Wind Direction,Wind SpeedMPH,Gust SpeedMPH,PrecipitationIn,Events,Conditions,WindDirDegrees,DateUTC
12:54 AM,23.0,15.1,72,30.10,10.0,South,4.6,-,N/A,,Clear,180,2012-11-25 05:54:00
1:54 AM,25.0,16.0,69,30.09,10.0,WNW,3.5,-,N/A,,Clear,300,2012-11-25 06:54:00
2:54 AM,21.0,15.1,78,30.10,10.0,Calm,Calm,-,N/A,,Clear,0,2012-11-25 07:54:00
3:54 AM,19.9,15.1,81,30.10,10.0,Calm,Calm,-,N/A,,Clear,0,2012-11-25 08:54:00
4:54 AM,19.0,15.1,85,30.10,10.0,Calm,Calm,-,N/A,,Clear,0,2012-11-25 09:54:00
5:54 AM,18.0,14.0,84,30.11,10.0,Calm,Calm,-,N/A,,Clear,0,2012-11-25 10:54:00
6:54 AM,18.0,15.1,88,30.13,10.0,Calm,Calm,-,N/A,,Clear,0,2012-11-25 11:54:00
7:54 AM,27.0,19.9,75,30.10,10.0,SSE,6.9,-,N/A,,Clear,160,2012-11-25 12:54:00
8:54 AM,34.0,19.9,56,30.12,10.0,Variable,5.8,-,N/A,,Clear,0,2012-11-25 13:54:00
9:54 AM,36.0,19.0,50,30.13,10.0,Variable,6.9,-,N/A,,Clear,0,2012-11-25 14:54:00
10:54 AM,41.0,17.1,38,30.11,10.0,Variable,6.9,16.1,N/A,,Clear,0,2012-11-25 15:54:00
11:54 AM,42.1,16.0,35,30.07,10.0,WSW,8.1,16.1,N/A,,Clear,240,2012-11-25 16:54:00
12:54 PM,46.0,15.1,29,30.03,10.0,SSW,12.7,-,N/A,,Clear,200,2012-11-25 17:54:00
1:54 PM,48.0,14.0,26,30.00,10.0,SSW,9.2,-,N/A,,Clear,200,2012-11-25 18:54:00
2:54 PM,50.0,12.9,23,29.98,10.0,SSW,10.4,-,N/A,,Clear,200,2012-11-25 19:54:00
3:54 PM,48.9,16.0,27,29.99,10.0,South,10.4,-,N/A,,Clear,190,2012-11-25 20:54:00
4:54 PM,45.0,18.0,34,29.99,10.0,SSW,8.1,-,N/A,,Clear,200,2012-11-25 21:54:00
5:54 PM,39.9,18.0,41,30.00,10.0,South,6.9,-,N/A,,Clear,190,2012-11-25 22:54:00
6:54 PM,39.9,19.0,43,30.01,10.0,SSW,6.9,-,N/A,,Clear,210,2012-11-25 23:54:00
7:54 PM,41.0,19.0,41,30.03,10.0,SW,5.8,-,N/A,,Clear,220,2012-11-26 00:54:00
8:54 PM,39.9,19.0,43,30.02,10.0,SSW,3.5,-,N/A,,Clear,210,2012-11-26 01:54:00
9:54 PM,36.0,19.0,50,30.03,10.0,Calm,Calm,-,N/A,,Clear,0,2012-11-26 02:54:00
10:54 PM,33.1,19.0,56,30.04,10.0,Calm,Calm,-,N/A,,Clear,0,2012-11-26 03:54:00
11:54 PM,36.0,19.9,52,30.04,10.0,SSW,3.5,-,N/A,,Clear,210,2012-11-26 04:54:00